POKER ONLINE Indonesia Terpercaya | Agen Dewa Poker88 - Hoya Jackpot

Jackpot

Texas Poker Multi Jackpot System

Kini Telah hadir Jackpot SUPER ROYAL FLUSH

Kini Telah hadir Jackpot 2000 (khusus table VIP keatas).

Ikutilah global jackpot yang tersedia di system kami, dengan system jackpot terbaru dan pertama di indonesia, anda dapat membeli jackpot dengan harga 100 rupiah saja dan menangkan hadiahnya hingga puluhan juta rupiah.

Jackpot bukanlah suatu keharusan untuk dibeli, namun kami memberikan suatu fitur tambahan untuk member tercinta dari www.hoyajackpot.com.

Terdapat tiga pilihan harga jackpot yang bisa anda beli yaitu :100,500,1000 dan 2000(khusus table VIP Keatas) rupiah.

Hadiah dari Multi jackpot system www.hoyajackpot.com

  1. full house x 10 harga jackpot yang anda beli.
      (contoh:anda membeli 1000 maka:1000 X10 = 10.000)
  2. four of kind x 250 harga jackpot yang anda beli
      (contoh:anda membeli 1000 maka:1000 X250 = 250.000)
  3. Straight flush x 1200
      (contoh:anda membeli 1000 maka:1000 X1200 = 1.200.000)
  4. Royal flush x 10000 harga jackpot yang anda beli
      (contoh:anda membeli 1000 maka:1000 X10000 = 10.000.000)
  5. SUPER ROYAL FLUSH x 30000 harga jackpot yang anda beli
      (contoh:anda membeli 1000 maka:1000 X30000 = 30.000.000)

Kondisi kartu

  1. full house adalah kondisi kartu dimana kartu anda dan kartu tengah dengan total 7 kartu bisa mendapatkan nilai 5 kartu dengan kombinasi 1 tris(three of kind) dan 1 pair, contoh 3 kartu 10 dan 2 kartu 5
  2. Four of kind adalah kondisi kartu dimana kartu anda dan kartu tengah dengan total 7 kartu bisa mendapatkan nilai 5 kartu dengan kombinasi 4 kartu yang sama jumlah dan 1 kartu apapun juga contoh anda mendapatkan 4 buah kartu angka 3 dan 1 kartu apapun.
  3. Staright flush adalah kondisi kartu dimana kartu anda dan kartu tengah dengan total 7 kartu bisa mendapatkan nilai 5 kartu dengan kombinasi seri / staright dengan kembang yang sama contoh : urutan kartu dari angka 5, 6, 7, 8 , 9 10 dengan kembang yg sama misalnya as hati
  4. Royal flush adalah kondisi kartu dimana kartu anda dan kartu tengah dengan total 7 kartu bisa mendapatkan nilai 5 kartu dengan kombinasi seri / staright dengan kembang yang sama tetapi kartu tersebut haruslah dimulai dari 10. contoh 10, Queen, Jack, King dan aces dengan kembang yang sama
  5. Super Royal flush adalah kondisi kartu dimana Kedua kartu anda digabung dengan 3 kartu pertama meja haruslah royal flush. contoh kartu anda 10,Queen kembang sama dan 3 kartu pertama meja adalah Jack, King dan aces dengan kembang yang sama

Demikian adalah penjelasan dari Multi Jackpot www.hoyajackpot.com terima kasih dan selamat bermain salam hoki dari kami

Texas Poker Jackpot Winner

TOP SUPER ROYAL FLUSH
No.TanggalNamaPriceWin
128/06 12:06M_0_3_1_LSuper Royal flush3,000,000
228/06 00:43BOS3XMANSuper Royal flush15,000,000
327/06 22:10RIO496Super Royal flush3,000,000
427/06 21:25ANDRIMIFASuper Royal flush3,000,000
527/06 17:28TANTE_PUKISuper Royal flush3,000,000
TOP ROYAL FLUSH
No.TanggalNamaPriceWin
128/06 14:03KABAY2NRoyal flush1,000,000
228/06 13:56UPGAN99Royal flush1,000,000
328/06 13:55LOLLIRoyal flush10,000,000
428/06 13:46B3075TMTRoyal flush5,000,000
528/06 13:40CHERIRoyal flush5,000,000
TOP STRAIGHT FLUSH
No.TanggalNamaPriceWin
128/06 14:01S1PUMStraight Flush120,000
228/06 14:01ALFETIHStraight Flush120,000
328/06 13:59TEMPA4T99Straight Flush600,000
428/06 13:57USOP91Straight Flush120,000
528/06 13:57REG151T1Straight Flush120,000
LATEST JACKPOT
No.TanggalNamaPriceWin
128/06 14:04MAEMUNAH91Full House5,000
228/06 14:04NORTHROP_5Full House1,000
328/06 14:03OPUNG169Full House1,000
428/06 14:03BAHE28Full House1,000
528/06 14:03MARWAN664Four Of A Kind125,000
628/06 14:03NATANZ83Four Of A Kind125,000
728/06 14:03AGAN3116Full House1,000
828/06 14:03MUTMUT13Full House10,000
928/06 14:03ROCKY2925Full House5,000
1028/06 14:03DEDYHOKI99Full House10,000
1128/06 14:03PANGERANKKFull House1,000
1228/06 14:03SEMUTT1Full House1,000
1328/06 14:03MG89Full House5,000
1428/06 14:03ARIK91Full House5,000
1528/06 14:03LAKONMENANFull House5,000
1628/06 14:03GAT07Full House1,000
1728/06 14:03DESBOY13Full House10,000
1828/06 14:03BANDIT27Full House1,000
1928/06 14:03JP__BOSKUFull House5,000
2028/06 14:03DEGAPFull House10,000
2128/06 14:03BADANG1Full House10,000
2228/06 14:03PRLYALWSFull House5,000
2328/06 14:03KINGHAND3Full House10,000
2428/06 14:03IKI8889Full House20,000
2528/06 14:03PARASITSFull House10,000
2628/06 14:03AULIA7439Full House1,000
2728/06 14:03041184Full House5,000
2828/06 14:03APEE666Full House5,000
2928/06 14:03MAYSHA77Full House5,000
3028/06 14:03LINGGO99Full House1,000
3128/06 14:03TAKKUNDUU9Full House5,000
3228/06 14:03JOKER2288Full House1,000
3328/06 14:03K33PC4LMFull House5,000
3428/06 14:03LCCOMANDERFull House1,000
3528/06 14:03JURJA777Full House5,000
3628/06 14:03AWIHAUR08Full House1,000
3728/06 14:03KABAY2NRoyal flush1,000,000
3828/06 14:03AW3N9Full House1,000
3928/06 14:03MENEL13Full House5,000
4028/06 14:03CIBAY789Full House5,000
4128/06 14:03FREEDHA88Full House10,000
4228/06 14:03WAFDIFAIZFull House1,000
4328/06 14:03WAKWAW40Full House1,000
4428/06 14:03GEPLAY99Full House1,000
4528/06 14:03CHIPUSFull House1,000
4628/06 14:03KJXSPEEDFull House5,000
4728/06 14:03GUR14Full House1,000
4828/06 14:03FRANSENA77Full House10,000
4928/06 14:03SAHRUL_21Four Of A Kind25,000
5028/06 14:02KINGSEA99Full House10,000

Domino Multi Jackpot System

Ikutilah global jackpot yang tersedia di system kami, dengan system jackpot terbaru dan pertama di indonesia, anda dapat membeli jackpot dengan harga 100 rupiah saja dan menangkan hadiahnya hingga puluhan juta rupiah.

Jackpot bukanlah suatu keharusan untuk dibeli, namun kami memberikan suatu fitur tambahan untuk member tercinta dari www.hoyajackpot.com.

Terdapat tiga pilihan harga jackpot yang bisa anda beli yaitu :100,500 dan 1000 rupiah.

Hadiah dari Multi jackpot system www.hoyajackpot.com

  1. Murni Kecil x 50 harga jackpot yang anda beli.
      (contoh:anda membeli 1000 maka:1000 X 50 = 50.000)
  2. Murni Besar x 50 harga jackpot yang anda beli
      (contoh:anda membeli 1000 maka:1000 X 50 = 50.000)
  3. BALAK x 100 harga jackpot yang anda beli
      (contoh:anda membeli 1000 maka:1000 X 100 = 100.000)
  4. ENAM DEWA x 6666 harga jackpot yang anda beli
      (contoh:anda membeli 1000 maka:1000 X 6666 = 6.666.000)

Demikian adalah penjelasan dari Multi Jackpot www.hoyajackpot.com terima kasih dan selamat bermain salam hoki dari kami

Domino Jackpot Winner

TOP ENAM DEWA
No.TanggalNamaPriceWin
128/06 13:58MOR0murni enam3,333,000
228/06 11:38SISUKAHOKImurni enam666,600
328/06 06:19TAKER83murni enam666,600
428/06 05:04PBR69murni enam6,666,000
528/06 03:24LASINO23murni enam6,666,000
TOP BALAK
No.TanggalNamaPriceWin
128/06 14:03THESAILORSbalak100,000
228/06 14:03GRZbalak50,000
328/06 13:59NOVANTO63balak100,000
428/06 13:58SINDI123balak100,000
528/06 13:55CINTAJUDIbalak50,000
LATEST JACKPOT
No.TanggalNamaPriceWin
128/06 14:04CARERA27murni kecil5,000
228/06 14:03NGOPI999murni besar5,000
328/06 14:03THESAILORSbalak100,000
428/06 14:03TIGER024murni besar50,000
528/06 14:03GRZbalak50,000
628/06 14:02GEERRAD8murni besar50,000
728/06 14:02GENTONG05murni besar25,000
828/06 14:00DAIRUmurni besar5,000
928/06 13:59BANKALmurni kecil5,000
1028/06 13:59NOVANTO63balak100,000
1128/06 13:58SINDI123balak100,000
1228/06 13:58NGOPI999murni kecil5,000
1328/06 13:58MOR0murni enam3,333,000
1428/06 13:58KONE131murni kecil50,000
1528/06 13:55CINTAJUDIbalak50,000
1628/06 13:55FILAS69murni kecil25,000
1728/06 13:55MULKI66murni besar25,000
1828/06 13:53BABEGUEDIEbalak100,000
1928/06 13:53EBAWNOL36murni kecil25,000
2028/06 13:52KHENKEN77murni besar25,000
2128/06 13:51QOQO1989murni besar50,000
2228/06 13:50BRINDELZ11balak100,000
2328/06 13:49GENDOENZZbalak10,000
2428/06 13:49MUMUJI93murni besar50,000
2528/06 13:47APEK1259murni kecil25,000
2628/06 13:46PABOTORO_8murni kecil50,000
2728/06 13:45TARIK5555murni besar5,000
2828/06 13:45DALLE_05murni kecil25,000
2928/06 13:44DALLE_05murni besar25,000
3028/06 13:44CJ95W3R3L6balak100,000
3128/06 13:43SOTOI_8murni besar50,000
3228/06 13:42UBERTOSmurni besar5,000
3328/06 13:41DM185391murni besar25,000
3428/06 13:41B41K14balak50,000
3528/06 13:41P4UL18murni kecil50,000
3628/06 13:40B41K14murni kecil25,000
3728/06 13:39SMA45murni kecil5,000
3828/06 13:39T4DFERNANDEZmurni besar25,000
3928/06 13:39T3G4_BGTmurni kecil50,000
4028/06 13:38KANAYA27murni kecil25,000
4128/06 13:37X_BLUE99murni besar25,000
4228/06 13:37A17178A4O08YH8Ubalak50,000
4328/06 13:37IRPAN22Qmurni kecil25,000
4428/06 13:36ADERVGB123murni besar50,000
4528/06 13:36FOX2B4H0RTmurni besar50,000
4628/06 13:36SONIK1234murni kecil50,000
4728/06 13:36AWD999murni kecil25,000
4828/06 13:36CCNDSYbalak100,000
4928/06 13:35ENGKUS007murni kecil5,000
5028/06 13:35FVCKB1TCHmurni besar50,000

Ceme Multi Jackpot System

Jackpot dilihat dari gabungan kartu pemain dengan kartu bandar. Bandar harus membeli jackpot sebanyak jumlah player yang sedang duduk. Sebagai contoh bila terdapat 3 pemain duduk bermain, dan bandar memutuskan untuk membeli jackpot Rp 1.000, maka pada periode tersebut bandar akan membeli jackpot sebanyak 3xRp1.000 = Rp3.000.

Jackpot bukanlah suatu keharusan untuk dibeli, namun kami memberikan suatu fitur tambahan untuk member tercinta dari www.hoyajackpot.com.

Terdapat tiga pilihan harga jackpot yang bisa anda beli yaitu :100,500 dan 1000 rupiah.

Hadiah dari Multi jackpot system www.hoyajackpot.com

  1. Murni Kecil x 50 harga jackpot yang anda beli.
      (contoh:anda membeli 1000 maka:1000 X 50 = 50.000)
  2. Murni Besar x 50 harga jackpot yang anda beli
      (contoh:anda membeli 1000 maka:1000 X 50 = 50.000)
  3. BALAK x 200 harga jackpot yang anda beli
      (contoh:anda membeli 1000 maka:1000 X 200 = 200.000)
  4. ENAM DEWA x 6666 harga jackpot yang anda beli
      (contoh:anda membeli 1000 maka:1000 X 6666 = 6.666.000)

Demikian adalah penjelasan dari Multi Jackpot www.hoyajackpot.com terima kasih dan selamat bermain salam hoki dari kami

Ceme Jackpot Winner

TOP ENAM DEWA
No.TanggalNamaPriceWin
128/06 13:51ESTY99murni enam6,666,000
228/06 13:51RIAQ9murni enam6,666,000
328/06 13:05JULEHE99murni enam6,666,000
428/06 13:04PUKOE93murni enam6,666,000
528/06 13:04TINOMBALA8murni enam666,600
TOP BALAK
No.TanggalNamaPriceWin
128/06 14:02GELORA21balak200,000
228/06 14:02KAMPAR99balak200,000
328/06 14:02DARLI999balak20,000
428/06 14:01K4M3433balak20,000
528/06 14:01ERIC102balak20,000
LATEST JACKPOT
No.TanggalNamaPriceWin
128/06 14:03DM166294murni kecil5,000
228/06 14:03DORA0507murni kecil5,000
328/06 14:03GOBANKKmurni besar50,000
428/06 14:03BENYSETmurni besar50,000
528/06 14:03DARLI999murni kecil5,000
628/06 14:03NSN8FXVUT3murni kecil5,000
728/06 14:03MELISAHU18murni kecil25,000
828/06 14:03ABSAN1501murni besar5,000
928/06 14:03FF13E05Dmurni besar25,000
1028/06 14:02GELORA21balak200,000
1128/06 14:02KAMPAR99balak200,000
1228/06 14:02ALPAT99murni kecil5,000
1328/06 14:02COLLIOH49murni kecil5,000
1428/06 14:02CEPDAYUT99murni kecil50,000
1528/06 14:02DHEWAGAMEmurni kecil25,000
1628/06 14:02DARLI999balak20,000
1728/06 14:02BANJIR54murni kecil50,000
1828/06 14:01CUNKILAN99murni kecil50,000
1928/06 14:01APRILL0murni kecil50,000
2028/06 14:01YADI_1309murni besar5,000
2128/06 14:01K4M3433balak20,000
2228/06 14:01ERIC102balak20,000
2328/06 14:01AX123murni kecil50,000
2428/06 14:01DEVIAN666murni kecil25,000
2528/06 14:01V9KBODOJ5Jmurni kecil5,000
2628/06 14:01DIK4_JPmurni kecil5,000
2728/06 14:01BTL123balak200,000
2828/06 14:01LUCKYLUCIObalak200,000
2928/06 14:01BJPXXXXmurni besar50,000
3028/06 14:00WIN343balak200,000
3128/06 14:00OPHIE800balak200,000
3228/06 14:00TARIK5555balak100,000
3328/06 14:00LUPPHBOYS_murni besar25,000
3428/06 14:00ANAKLANTAUmurni kecil50,000
3528/06 14:00ANDRI0811balak200,000
3628/06 14:00TERESHA99balak20,000
3728/06 14:00OSK78murni kecil5,000
3828/06 14:00OSK78murni kecil5,000
3928/06 14:00NAIN98murni kecil5,000
4028/06 14:00ATT9999murni kecil50,000
4128/06 14:00DN4DAHNADImurni kecil50,000
4228/06 14:00WIN343murni kecil50,000
4328/06 14:00AHYARNAKULmurni kecil50,000
4428/06 14:00GOBANKKmurni besar50,000
4528/06 13:59GOBANKKbalak200,000
4628/06 13:59SEJAGAD333balak20,000
4728/06 13:59LASSBAND66murni besar50,000
4828/06 13:59KIY0murni besar5,000
4928/06 13:59BUNGLON99murni besar50,000
5028/06 13:59TAISIAU1murni kecil50,000